Weather in Khmelinets

Russia / Lipetsk Oblast     52°28′00″N   38°53′29″E
temp.,
°C
wind,
m/s
gust,
m/s
humid.,
%
clouds,
%
prec.,
mm/h
press.,
hPa
HPBL,
m
17 may, mon
mon1700:00+16ene498915 0.4 1011149
03:00+16e479367 0.4 1011111
06:00+16e48865 0.0 1010157
09:00+22se5106031 0.0 1010413
12:00+26se6114491 0.0 10101190
15:00+26ese71250100 0.0 10091229
18:00+24se814615 0.0 1008691
21:00+20ese61668100 0.0 1008386
18 may, tue
tue1800:00+18ese515685 0.0 1008323
03:00+15ese49725 0.0 1008145
06:00+14ese4107775 0.0 1008205
09:00+21se610555 0.0 1008436
12:00+25ese7104310 0.0 1007956
15:00+24se61057100 0.0 10061111
18:00+22sse5106298 0.0 1006522
21:00+17sw4885100 0.0 1007294
19 may, wed
wed1900:00+14sse1192100 0.1 100716
03:00+15ese4788100 0.1 1008185
06:00+15se498899 0.2 1007387
09:00+18sse34755 0.4 1007594
12:00+22sse345870 0.1 10061713
15:00+21ssw346387 0.1 1006784
18:00+20sse5867100 0.3 1006374
21:00+15s3793100 0.6 1007241
20 may, thu
thu2000:00+14s359523 0.0 1007258
03:00+13se4893100 0.0 1008370
06:00+13sse479517 0.2 1008301
09:00+16sse677977 0.3 1008888
12:00+17sse676839 1.3 10081223
15:00+18ssw566495 2.2 10081395
18:00+17ssw587693 0.6 1008946
21:00+13ssw499333 1.3 1010256
21 may, fri
fri2100:00+11ssw4109692 0.0 1012291
03:00+11sw4109680 0.0 1013374
06:00+11wsw4990100 0.0 1015458
09:00+10wsw2586100 0.4 1017272
12:00+11sw2484100 0.6 1018268
15:00+16wsw3472100 0.6 1018652
18:00+16nnw2176100 0.1 1018318
21:00+13ne3585100 0.1 101890